Meteo Giornale » Osservazioni meteo Stati Uniti (USA) » Pecos City
ore: 18:15 - Osservazioni Meteo Pecos City
Lat. 31° 23' N Lon. 103° 31' W Alt. 797 metri s.l.m.
37 °C
Sereno
Temp. 24 Ore
25 °C
40 °C
Est/Sud-Est
16.7 Km/h
Dew point 14 °C
Umidità 25 %
Visibilità 10 Km
Il sole sorge alle ore 07:29
Il sole tramonta alle ore 20:19
| Data e Ora | Cielo e Fenomeni | T °C | DP °C | Um. % | Pres. hPa | Vis. km | Vento km/h | |
|---|---|---|---|---|---|---|---|---|
| Oggi h: 18:15 | Sereno | 37 | 14 | 25 | 1011 | 10 | E/SE 16.7 | |
| Oggi h: 17:55 | Nuvoloso | 38 | 14 | 24 | 1011 | 10 | E 22.2 | |
| Oggi h: 17:35 | Nuvoloso | 39 | 15 | 24 | 1011 | 10 | E 22.2 | |
| Oggi h: 17:15 | Sereno | 39 | 14 | 22 | 1011 | 10 | E 29.6 | |
| Oggi h: 16:55 | Nuvoloso | 40 | 12 | 19 | 1012 | 10 | E/NE 16.7 | |
| Oggi h: 16:35 | Nuvoloso | 39 | 10 | 17 | 1012 | 10 | SE 13 | |
| Oggi h: 16:15 | Sereno | 39 | 11 | 18 | 1012 | 10 | SE 7.4 | |
| Oggi h: 15:55 | Sereno | 38 | 12 | 21 | 1013 | 10 | N 0 | |
| Oggi h: 15:35 | Sereno | 38 | 12 | 21 | 1013 | 10 | E/SE 7.4 | |
| Oggi h: 15:15 | Sereno | 38 | 12 | 21 | 1014 | 10 | N/NE 7.4 | |
| Oggi h: 14:55 | Sereno | 38 | 13 | 22 | 1014 | 10 | E/NE 11.1 | |
| Oggi h: 14:35 | Sereno | 37 | 13 | 23 | 1014 | 10 | NE 13 | |
| Oggi h: 14:15 | Sereno | 37 | 13 | 23 | 1014 | 10 | E 14.8 | |
| Oggi h: 13:55 | Sereno | 38 | 14 | 24 | 1015 | 10 | E/NE 13 | |
| Oggi h: 13:35 | Sereno | 36 | 14 | 26 | 1015 | 10 | E 16.7 | |
| Oggi h: 13:15 | Sereno | 36 | 14 | 26 | 1015 | 10 | NE 13 | |
| Oggi h: 12:55 | Sereno | 35 | 14 | 28 | 1015 | 10 | N 0 | |
| Oggi h: 12:35 | Sereno | 35 | 13 | 26 | 1016 | 10 | N/NE 7.4 | |
| Oggi h: 12:15 | Sereno | 35 | 14 | 28 | 1016 | 10 | NE 7.4 | |
| Oggi h: 11:55 | Sereno | 34 | 14 | 30 | 1016 | 10 | N 0 | |
| Oggi h: 11:35 | Sereno | 34 | 14 | 30 | 1016 | 10 | SE 7.4 | |
| Oggi h: 11:15 | Sereno | 33 | 15 | 33 | 1016 | 10 | N 5.5 | |
| Oggi h: 10:55 | Sereno | 33 | 14 | 31 | 1016 | 10 | N 5.5 | |
| Oggi h: 10:35 | Sereno | 32 | 15 | 35 | 1016 | 10 | SE 11.1 | |
| Oggi h: 10:15 | Sereno | 31 | 15 | 37 | 1016 | 10 | SE 13 | |
| Oggi h: 09:55 | Sereno | 30 | 16 | 42 | 1016 | 10 | SE 14.8 | |
| Oggi h: 09:35 | Sereno | 29 | 16 | 45 | 1016 | 10 | SE 16.7 | |
| Oggi h: 09:15 | Sereno | 28 | 16 | 48 | 1016 | 10 | SE 20.3 | |
| Oggi h: 08:55 | Sereno | 27 | 16 | 50 | 1016 | 10 | SE 18.5 | |
| Oggi h: 08:35 | Sereno | 26 | 16 | 54 | 1016 | 10 | SE 16.7 | |
| Oggi h: 08:15 | Sereno | 26 | 16 | 54 | 1016 | 10 | E/SE 16.7 | |
| Oggi h: 07:55 | Sereno | 25 | 16 | 57 | 1015 | 10 | E/SE 16.7 | |
| Oggi h: 07:35 | Sereno | 25 | 16 | 57 | 1015 | 10 | E/SE 18.5 | |
| Oggi h: 07:15 | Sereno | 26 | 16 | 54 | 1015 | 10 | E/SE 20.3 | |
| Oggi h: 06:55 | Sereno | 26 | 15 | 50 | 1015 | 10 | E/SE 20.3 | |
| Oggi h: 06:35 | Sereno | 26 | 15 | 50 | 1015 | 10 | E/SE 20.3 | |
| Oggi h: 06:15 | Sereno | 26 | 15 | 50 | 1014 | 10 | E/SE 22.2 | |
| Oggi h: 05:55 | Sereno | 26 | 15 | 50 | 1014 | 10 | E/SE 24 | |
| Oggi h: 05:35 | Sereno | 26 | 15 | 50 | 1014 | 10 | E/SE 22.2 | |
| Oggi h: 05:15 | Sereno | 27 | 15 | 47 | 1014 | 10 | E 22.2 | |
| Oggi h: 04:55 | Sereno | 27 | 15 | 47 | 1014 | 10 | E 22.2 | |
| Oggi h: 04:35 | Sereno | 27 | 15 | 47 | 1015 | 10 | E 18.5 | |
| Oggi h: 04:15 | Sereno | 27 | 14 | 44 | 1014 | 10 | E 16.7 | |
| Oggi h: 03:55 | Sereno | 27 | 14 | 44 | 1015 | 10 | E 16.7 | |
| Oggi h: 03:35 | Sereno | 28 | 14 | 42 | 1015 | 10 | E/SE 16.7 | |
| Oggi h: 03:15 | Sereno | 28 | 15 | 45 | 1015 | 10 | E/SE 16.7 | |
| Oggi h: 02:55 | Sereno | 28 | 15 | 45 | 1015 | 10 | E/SE 18.5 | |
| Oggi h: 02:35 | Sereno | 28 | 15 | 45 | 1015 | 10 | E/SE 18.5 | |
| Oggi h: 02:15 | Sereno | 29 | 15 | 42 | 1015 | 10 | E/SE 16.7 | |
| Oggi h: 01:55 | Sereno | 29 | 15 | 42 | 1015 | 10 | E/SE 18.5 | |
| Oggi h: 01:35 | Sereno | 29 | 15 | 42 | 1015 | 10 | E/SE 22.2 | |
| Oggi h: 01:15 | Sereno | 30 | 15 | 40 | 1015 | 10 | E/SE 24 | |
| Oggi h: 00:55 | Sereno | 30 | 15 | 40 | 1015 | 10 | SE 22.2 | |
| Oggi h: 00:35 | Sereno | 30 | 15 | 40 | 1015 | 10 | SE 25.9 | |
| Oggi h: 00:15 | Sereno | 31 | 15 | 37 | 1015 | 10 | SE 29.6 | |
| Ieri h: 23:55 | Sereno | 31 | 15 | 37 | 1015 | 10 | SE 25.9 | |
| Ieri h: 23:35 | Sereno | 31 | 15 | 37 | 1015 | 10 | SE 25.9 | |
| Ieri h: 23:15 | Sereno | 32 | 15 | 35 | 1014 | 10 | E/SE 25.9 | |
| Ieri h: 22:55 | Sereno | 32 | 14 | 33 | 1014 | 10 | E/SE 35.2 | |
| Ieri h: 22:35 | Sereno | 33 | 14 | 31 | 1014 | 10 | E/SE 31.5 | |
| Ieri h: 22:15 | Sereno | 33 | 13 | 29 | 1013 | 10 | E/SE 31.5 | |
| Ieri h: 21:55 | Sereno | 33 | 13 | 29 | 1013 | 10 | E/SE 27.8 | |
| Ieri h: 21:35 | Sereno | 34 | 12 | 26 | 1012 | 10 | E/SE 29.6 | |
| Ieri h: 21:15 | Sereno | 34 | 12 | 26 | 1012 | 10 | E/SE 31.5 | |
| Ieri h: 20:55 | Sereno | 35 | 13 | 26 | 1012 | 10 | E/SE 25.9 | |
| Ieri h: 20:35 | Sereno | 35 | 13 | 26 | 1011 | 10 | E 22.2 | |
| Ieri h: 20:15 | Sereno | 36 | 13 | 25 | 1011 | 10 | E 27.8 | |
| Ieri h: 19:55 | Sereno | 37 | 13 | 23 | 1011 | 11 | E/SE 29.6 | |
| Ieri h: 19:35 | Sereno | 38 | 11 | 19 | 1011 | 10 | E 13 | |
| Ieri h: 19:15 | Sereno | 38 | 9 | 17 | 1011 | 10 | E 13 | |
| Ieri h: 18:55 | Sereno | 38 | 10 | 18 | 1011 | 10 | N 5.5 | |
| Ieri h: 18:35 | Sereno | 39 | 9 | 16 | 1011 | 10 | E 13 | |



